Lid_Strength_Index
4 4 2 4 6 6 9 9 7 8 7 5 5 6 6 6 7 10 1 -0 -1 -1 -1 -1 -1 -1 -1 -1 -1 -2 -2 -2 -2 -2 -2 -2 -2 -2 -1 -1 -1 -2 -1 -1 -1 -1 -1 -1 -1
3 5 4 4 7 10 10 7 8 7 6 4 5 5 6 7 4 3 2 -0 -1 -1 -1 -1 -1 -1 -2 -1 -1 -1 -1 -1 -1 -2 -1 -1 -1 -1 -1 -1 -1 -1 -1 -1 -1 -1 -1 -1 -1
4 4 4 5 7 9 9 7 7 6 5 5 6 4 5 6 3 2 0 -1 -1 -1 -1 -2 -1 -1 -2 -2 -1 -1 -1 -1 -1 -1 -1 -1 -1 -1 -1 -1 -1 -1 -1 -1 -1 -1 -1 -1 -1
4 4 3 7 8 7 7 6 6 6 5 4 4 6 4 2 2 1 -0 -1 -1 -1 -1 -1 -1 -2 -2 -2 -2 -1 -1 -1 -1 -1 -1 -1 -1 -1 -0 -0 -0 -1 -1 -1 -1 -1 -1 -1 -1
3 4 7 8 8 7 6 5 5 6 6 5 5 7 6 2 1 0 -0 -0 -0 -1 -2 -2 -1 -2 -2 -1 -1 -2 -2 -2 -2 -1 -1 -1 -1 -1 -1 -1 -1 -1 -1 -1 -1 -1 -1 -1 -1
4 3 8 9 8 7 6 5 5 5 5 5 5 5 5 2 1 0 -0 -0 -1 -1 -1 -2 -2 -2 -2 -2 -2 -2 -2 -2 -2 -1 -1 -1 -1 -1 -1 -1 -1 -1 -1 -1 -1 -1 -1 -1 -1
4 5 8 8 8 7 6 4 5 5 5 5 4 6 5 3 1 0 -0 -1 -1 -1 -1 -2 -2 -2 -2 -1 -1 -1 -1 -1 -2 -2 -2 -1 -1 -1 -1 -1 -1 -1 -1 -1 -1 -1 -1 -1 -1
4 5 7 7 8 8 6 4 4 4 5 3 3 6 6 2 1 -0 -0 -0 -1 -1 -1 -1 -1 -1 -2 -2 -2 -1 -1 -1 -1 -1 -1 -1 -2 -1 -1 -1 -1 -1 -1 -1 -1 -0 0 0 0
4 6 8 8 8 7 5 5 4 3 4 4 3 3 2 1 1 1 1 0 0 -0 -1 -1 -1 -1 -2 -2 -1 -1 -2 -1 -1 -1 -1 -1 -2 -2 -2 -2 -1 -1 -1 -1 -1 -1 -0 -0 -1
4 6 7 6 5 6 5 5 5 5 4 4 4 3 2 2 2 2 2 2 1 1 -0 -1 -1 -1 -2 -2 -2 -2 -2 -3 -2 -2 -2 -3 -2 -2 -2 -2 -1 -1 -1 -1 -1 -0 0 -0 -2
5 7 5 6 5 4 5 5 4 5 6 4 4 3 3 2 2 2 2 1 1 0 -0 -1 -1 -1 -1 -2 -2 -2 -2 -3 -3 -2 -2 -2 -2 -3 -2 -2 -2 -2 -1 -2 -2 -2 -2 -1 -2
6 5 5 5 5 5 5 4 5 4 4 3 3 2 2 3 3 2 2 1 1 0 -0 -1 -1 -1 -2 -2 -2 -2 -2 -2 -2 -2 -2 -2 -2 -2 -2 -2 -2 -2 -2 -2 -2 -2 -2 -2 -2
5 5 4 4 5 4 4 5 5 5 3 3 2 3 3 2 2 1 1 1 0 1 0 -0 -1 -1 -2 -2 -2 -2 -2 -2 -2 -2 -2 -2 -1 -1 -2 -2 -2 -2 -2 -2 -1 -2 -1 -1 -1
5 5 5 5 5 5 5 5 5 4 3 3 3 3 2 2 2 2 1 1 1 0 0 -0 -1 -1 -1 -1 -2 -2 -2 -2 -2 -2 -2 -2 -2 -2 -2 -1 -1 -2 -2 -2 -2 -1 -1 -0 0
4 6 5 5 5 5 5 6 6 4 4 4 3 3 3 2 2 2 1 1 1 0 -0 -0 -0 -1 -1 -1 -1 -2 -2 -2 -2 -2 -2 -2 -2 -2 -2 -2 -1 -1 -2 -2 -2 -2 -1 -0 1
6 6 8 6 5 5 5 8 5 3 4 4 4 3 3 3 2 1 1 1 0 0 0 -0 -0 -0 -1 -1 -2 -2 -2 -2 -2 -2 -2 -2 -2 -2 -2 -1 -1 -2 -2 -2 -1 -1 -1 -0 0
7 9 9 8 5 6 6 8 5 4 5 4 4 3 3 3 2 2 1 1 0 -0 0 -0 -1 -1 -1 -1 -1 -2 -2 -2 -2 -2 -1 -1 -2 -2 -2 -1 -1 -2 -1 -1 -1 -1 -1 -0 0
9 9 9 9 6 6 7 7 6 5 5 5 4 4 4 3 3 2 1 1 0 -0 -0 -0 -0 -0 -0 -1 -2 -1 -1 -1 -1 -1 -0 -1 -0 -1 -1 -1 -1 -2 -1 -1 -1 -0 -1 -0 -0
8 9 9 8 6 7 8 7 6 5 4 4 4 4 4 3 2 2 2 2 1 0 1 0 0 -0 -1 -1 -0 -0 0 1 0 0 0 -0 -0 -0 -1 -0 -1 -1 -1 -1 -1 -0 0 0 -0
8 9 9 8 7 7 7 8 6 6 6 5 4 4 4 3 3 2 2 1 1 1 1 0 1 1 1 1 1 1 1 1 0 -0 -0 -0 -0 -0 0 0 0 -1 -0 -1 -0 -0 1 0 -0
8 9 9 9 7 7 8 8 8 6 5 5 4 4 4 4 4 3 3 2 1 1 1 2 1 1 1 1 0 0 0 0 1 1 1 1 1 1 1 0 0 0 -0 0 -0 -0 0 2 0
10 7 8 9 9 11 8 12 9 7 7 6 5 4 4 4 4 3 3 2 2 1 1 1 1 1 1 1 1 1 2 2 2 1 1 1 1 1 1 1 0 0 0 1 0 -0 -0 0 2
9 7 8 9 10 10 10 11 10 7 8 7 5 5 4 4 3 3 3 2 2 1 1 1 1 1 1 1 1 1 2 2 2 2 2 2 1 1 1 1 1 1 1 0 0 -0 -0 -0 1
6 8 8 8 9 14 11 11 11 9 8 7 6 5 4 4 3 3 2 2 2 1 1 1 1 2 1 1 1 2 3 2 2 3 3 3 3 2 2 2 1 1 1 1 1 1 1 1 1
7 9 12 15 15 14 10 11 11 8 7 6 6 5 4 3 3 3 3 3 2 2 1 1 1 2 2 2 2 2 3 3 3 3 3 3 3 3 2 1 1 1 1 1 2 2 3 4 5
9 10 13 18 15 13 11 13 11 7 6 5 5 5 4 4 4 3 3 2 2 2 2 1 2 2 2 2 2 2 2 2 2 3 3 3 3 2 1 1 1 2 2 2 2 2 4 5 6
10 11 9 13 13 15 11 10 8 6 7 6 6 5 5 4 4 3 3 2 2 2 2 2 2 2 2 2 2 2 2 2 2 2 2 3 2 2 1 1 2 2 2 2 2 3 3 3 3
8 7 12 11 19 18 12 12 11 9 8 7 6 6 5 4 4 3 3 3 3 2 2 2 2 2 2 2 1 2 2 1 2 2 3 3 2 2 2 2 3 3 3 3 2 2 2 2 2
9 10 10 10 13 16 17 12 8 8 7 7 6 6 5 4 4 4 3 3 3 2 2 3 3 2 2 2 2 2 1 2 2 3 3 2 2 3 4 3 4 4 3 2 2 2 2 2 3
8 9 10 13 15 13 14 13 7 6 6 6 6 6 5 4 4 4 3 3 3 3 3 3 3 3 3 3 3 2 2 2 3 3 3 2 3 3 3 3 3 2 2 1 1 2 2 3 3